Home   Weather   Celle   Past weeks

Flag for Germany Past Weather in Celle, Lower Saxony, Germany — Yesterday and Last 2 Weeks

Now
48 °F

Drizzle. Broken clouds.


Feels Like: 43 °F
Forecast: 40 / 49 °F
Wind: 14 mph from West

Location: Celle Airport

Current Time: Feb 22, 2017 at 2:04:19 pm

Latest Report: Feb 22, 2017 at 1:20 pm


Visibility: 5 mi

Pressure: 29.53 "Hg

Humidity: 94%

Dew Point: 46 °F

Location of CelleLocation

Past Weather in Celle — Graph

°F

Celle Temperature Yesterday

Maximum temperature yesterday: 48 °F (at 12:20 am)
Minimum temperature yesterday: 39 °F (at 11:20 pm)
Average temperature yesterday: 45 °F

High & Low Weather Summary for the Past Weeks

 TemperatureHumidityPressure
High52 °F (Feb 15, 3:20 pm)100% (Feb 21, 4:20 am)30.60 "Hg (Feb 21, 4:20 am)
Low23 °F (Feb 10, 8:20 am)40% (Feb 15, 2:20 pm)29.53 "Hg (Feb 22, 6:20 am)
Average35 °F78%30.23 "Hg
* Reported Feb 7 12:20 pm — Feb 22 12:20 pm, Celle, Weather by CustomWeather, © 2017

Note: Actual official high and low records may vary slightly from our data, if they occured in-between our weather recording intervals... More about our weather records

Advertising

Celle Weather History for the Previous 24 Hours

Scroll right to see more
 ConditionsComfort  
Time TempWeatherWind HumidityBarometerVisibility
12:20 pm
Wed, Feb 22
48 °FDrizzle. Fog.13 mph94%29.53 "Hg3 mi
11:20 am48 °FDrizzle. Fog.24 mph94%29.53 "Hg3 mi
10:20 am48 °FDrizzle. Broken clouds.25 mph94%29.53 "Hg4 mi
9:20 am48 °FDrizzle. Partly sunny.26 mph87%29.53 "Hg6 mi
8:20 am48 °FDrizzle. Cloudy.25 mph94%29.53 "Hg4 mi
8:13 am48 °FDrizzle. Cloudy.26 mph87%29.53 "Hg4 mi
7:20 am50 °FDrizzle. Overcast.25 mph82%29.53 "Hg4 mi
7:19 am50 °FDrizzle. Overcast.25 mph82%29.53 "Hg4 mi
6:20 am50 °FPassing clouds.26 mph88%29.53 "Hg3 mi
5:20 am50 °FPassing clouds.24 mph88%29.56 "Hg5 mi
4:48 am48 °FDrizzle. Fog.22 mph94%29.56 "Hg2 mi
4:20 am48 °FDrizzle. Fog.22 mph94%29.59 "Hg3 mi
3:51 am46 °FFog.14 mph93%29.62 "Hg3 mi
3:20 am46 °FFog.13 mph93%29.62 "Hg2 mi
2:58 am45 °FDrizzle. Fog.12 mph93%29.65 "Hg2 mi
2:50 am45 °FDrizzle. Fog.12 mph93%29.65 "Hg2 mi
2:20 am45 °FDrizzle. Fog.10 mph87%29.68 "Hg3 mi
2:04 am45 °FRain. Overcast.10 mph87%29.68 "Hg4 mi
1:20 am45 °FLight rain. Partly cloudy.10 mph81%29.74 "HgN/A
12:20 am39 °FPassing clouds.6 mph87%29.77 "HgN/A
11:20 pm
Tue, Feb 21
39 °FPassing clouds.6 mph81%29.83 "HgN/A
10:20 pm41 °FPassing clouds.3 mph76%29.86 "HgN/A
9:20 pm41 °FPassing clouds.6 mph76%29.86 "HgN/A
8:20 pm41 °FPassing clouds.7 mph81%29.89 "HgN/A
7:20 pm43 °FPassing clouds.6 mph81%29.89 "HgN/A
6:20 pm43 °FPassing clouds.6 mph81%29.89 "HgN/A
5:20 pm45 °FPartly sunny.8 mph76%29.89 "HgN/A
4:20 pm46 °FBroken clouds.10 mph71%29.86 "HgN/A
3:20 pm46 °FBroken clouds.9 mph76%29.86 "HgN/A
2:20 pm46 °FBroken clouds.12 mph82%29.86 "HgN/A
Weather by CustomWeather, © 2017

See weather overviewHow to use our weather pages